(°C)
(°C)
شرق
شرق
شرق
ENE
ENE
ENE
ENE
(كم/سا)
16-23
16-22
16-22
15-20
15-21
15-22
16-24
(مم)
0
0
0
0
0
0
0
(%)
0
7
7
7
7
0
7

مستوى ارتفاع الشمس

/ -23.9°
sun-icon
UV 1
06:21
18:44
بدر كامل (187°)
19:15
06:19

متر ل53.5°شمال 50.15°شرق (UWWW)

الوقت الشروط درجة الحرارة/
نقطة الندى
رياح مجال رؤية حالة الطقس غيوم الضغط تغيير خام
VFR 7°C / -1°C 90º 8kt >10km - Scattered Clouds 3300ft 1024 No Significant change UWWW 202300Z 09004MPS 9999 SCT033 07/M01 Q1024 R15/CLRD60 NOSIG RMK QFE756/1008
VFR 7°C / -1°C 80º 8kt >10km - Scattered Clouds 3300ft 1024 No Significant change UWWW 202230Z 08004MPS 9999 SCT033 07/M01 Q1024 R15/CLRD60 NOSIG RMK QFE756/1009
VFR 8°C / -1°C 80º 10kt >10km - Scattered Clouds 3300ft 1024 No Significant change UWWW 202200Z 08005MPS 9999 SCT033 08/M01 Q1024 R15/CLRD60 NOSIG RMK QFE756/1008
VFR 8°C / -1°C 80º 12kt >10km - Scattered Clouds 3300ft 1024 No Significant change UWWW 202130Z 08006MPS 9999 SCT033 08/M01 Q1024 R15/CLRD60 NOSIG RMK QFE756/1008
VFR 8°C / -1°C 90º variable 070º to 130º 12kt >10km - Scattered Clouds 3300ft 1024 No Significant change UWWW 202100Z 09006MPS 070V130 9999 SCT033 08/M01 Q1024 R15/CLRD60 NOSIG RMK QFE756/1008
VFR 8°C / -1°C 90º 10kt >10km - Scattered Clouds 3300ft 1024 No Significant change UWWW 202030Z 09005MPS 9999 SCT033 08/M01 Q1024 R15/CLRD60 NOSIG RMK QFE756/1008
VFR 8°C / -1°C 90º 10kt >10km - Scattered Clouds 3300ft 1024 No Significant change UWWW 202000Z 09005MPS 9999 SCT033 08/M01 Q1024 R15/CLRD60 NOSIG RMK QFE756/1008
VFR 8°C / 0°C 80º variable 060º to 160º 8kt >10km - Scattered Clouds 3300ft 1024 No Significant change UWWW 201930Z 08004MPS 060V160 9999 SCT033 08/M00 Q1024 R15/CLRD60 NOSIG RMK QFE756/1009
VFR 8°C / 0°C 80º 8kt >10km - Scattered Clouds 3300ft 1024 No Significant change UWWW 201900Z 08004MPS 9999 SCT033 08/M00 Q1024 R15/CLRD60 NOSIG RMK QFE757/1009
VFR 8°C / -1°C 90º variable 070º to 140º 8kt >10km - Scattered Clouds 3300ft 1024 No Significant change UWWW 201830Z 09004MPS 070V140 9999 SCT033 08/M01 Q1024 R15/CLRD60 NOSIG RMK QFE756/1009
VFR 8°C / -1°C 90º 8kt >10km - Scattered Clouds 3300ft 1024 No Significant change UWWW 201800Z 09004MPS 9999 SCT033 08/M01 Q1024 R15/CLRD60 NOSIG RMK QFE757/1009
VFR 9°C / -1°C 80º 8kt >10km - Clouds and Visibility OK 1024 No Significant change UWWW 201730Z 08004MPS CAVOK 09/M01 Q1024 R15/CLRD60 NOSIG RMK QFE757/1009
VFR 9°C / -1°C 70º 8kt >10km - Clouds and Visibility OK 1024 No Significant change UWWW 201700Z 07004MPS CAVOK 09/M01 Q1024 R15/CLRD60 NOSIG RMK QFE756/1009
VFR 10°C / -1°C 80º 10kt >10km - Clouds and Visibility OK 1024 No Significant change UWWW 201630Z 08005MPS CAVOK 10/M01 Q1024 R15/CLRD60 NOSIG RMK QFE756/1009
VFR 10°C / -1°C 80º 8kt >10km - Clouds and Visibility OK 1024 No Significant change UWWW 201600Z 08004MPS CAVOK 10/M01 Q1024 R15/CLRD60 NOSIG RMK QFE756/1009
VFR 10°C / -1°C 70º 8kt >10km - Clouds and Visibility OK 1024 No Significant change UWWW 201530Z 07004MPS CAVOK 10/M01 Q1024 R15/CLRD60 NOSIG RMK QFE756/1009
VFR 10°C / 0°C 70º 6kt >10km - Clouds and Visibility OK 1024 No Significant change UWWW 201500Z 07003MPS CAVOK 10/M00 Q1024 R15/CLRD60 NOSIG RMK QFE756/1008
VFR 11°C / -2°C 90º variable 070º to 140º 6kt >10km - Clouds and Visibility OK 1024 No Significant change UWWW 201430Z 09003MPS 070V140 CAVOK 11/M02 Q1024 R15/CLRD60 NOSIG RMK QFE756/1008
VFR 12°C / -2°C 110º 8kt >10km - Clouds and Visibility OK 1024 No Significant change UWWW 201400Z 11004MPS CAVOK 12/M02 Q1024 R15/CLRD60 NOSIG RMK QFE756/1008
VFR 12°C / -3°C 110º 8kt >10km - Clouds and Visibility OK 1024 No Significant change UWWW 201330Z 11004MPS CAVOK 12/M03 Q1024 R15/CLRD60 NOSIG RMK QFE756/1008
VFR 12°C / -2°C 90º 10kt >10km - Clouds and Visibility OK 1024 No Significant change UWWW 201300Z 09005MPS CAVOK 12/M02 Q1024 R15/CLRD60 NOSIG RMK QFE756/1008
VFR 12°C / -2°C 100º 10kt >10km - Clouds and Visibility OK 1024 No Significant change UWWW 201230Z 10005MPS CAVOK 12/M02 Q1024 R15/CLRD60 NOSIG RMK QFE756/1009
VFR 12°C / -3°C 90º 10kt >10km - Clouds and Visibility OK 1024 No Significant change UWWW 201200Z 09005MPS CAVOK 12/M03 Q1024 R15/CLRD60 NOSIG RMK QFE756/1009
VFR 12°C / -2°C 90º 10kt >10km - Clouds and Visibility OK 1024 No Significant change UWWW 201130Z 09005MPS CAVOK 12/M02 Q1024 R15/CLRD60 NOSIG RMK QFE757/1009

VFR

7°C / -1°C

[أكثر]
رياح 90º 8kt
مجال رؤية >10km
حالة الطقس -
غيوم Scattered Clouds 3300ft
الضغط 1024
تغيير No Significant change
خام UWWW 202300Z 09004MPS 9999 SCT033 07/M01 Q1024 R15/CLRD60 NOSIG RMK QFE756/1008

VFR

7°C / -1°C

[أكثر]
رياح 80º 8kt
مجال رؤية >10km
حالة الطقس -
غيوم Scattered Clouds 3300ft
الضغط 1024
تغيير No Significant change
خام UWWW 202230Z 08004MPS 9999 SCT033 07/M01 Q1024 R15/CLRD60 NOSIG RMK QFE756/1009

VFR

8°C / -1°C

[أكثر]
رياح 80º 10kt
مجال رؤية >10km
حالة الطقس -
غيوم Scattered Clouds 3300ft
الضغط 1024
تغيير No Significant change
خام UWWW 202200Z 08005MPS 9999 SCT033 08/M01 Q1024 R15/CLRD60 NOSIG RMK QFE756/1008

VFR

8°C / -1°C

[أكثر]
رياح 80º 12kt
مجال رؤية >10km
حالة الطقس -
غيوم Scattered Clouds 3300ft
الضغط 1024
تغيير No Significant change
خام UWWW 202130Z 08006MPS 9999 SCT033 08/M01 Q1024 R15/CLRD60 NOSIG RMK QFE756/1008

VFR

8°C / -1°C

[أكثر]
رياح 90º variable 070º to 130º 12kt
مجال رؤية >10km
حالة الطقس -
غيوم Scattered Clouds 3300ft
الضغط 1024
تغيير No Significant change
خام UWWW 202100Z 09006MPS 070V130 9999 SCT033 08/M01 Q1024 R15/CLRD60 NOSIG RMK QFE756/1008

VFR

8°C / -1°C

[أكثر]
رياح 90º 10kt
مجال رؤية >10km
حالة الطقس -
غيوم Scattered Clouds 3300ft
الضغط 1024
تغيير No Significant change
خام UWWW 202030Z 09005MPS 9999 SCT033 08/M01 Q1024 R15/CLRD60 NOSIG RMK QFE756/1008

VFR

8°C / -1°C

[أكثر]
رياح 90º 10kt
مجال رؤية >10km
حالة الطقس -
غيوم Scattered Clouds 3300ft
الضغط 1024
تغيير No Significant change
خام UWWW 202000Z 09005MPS 9999 SCT033 08/M01 Q1024 R15/CLRD60 NOSIG RMK QFE756/1008

VFR

8°C / 0°C

[أكثر]
رياح 80º variable 060º to 160º 8kt
مجال رؤية >10km
حالة الطقس -
غيوم Scattered Clouds 3300ft
الضغط 1024
تغيير No Significant change
خام UWWW 201930Z 08004MPS 060V160 9999 SCT033 08/M00 Q1024 R15/CLRD60 NOSIG RMK QFE756/1009

VFR

8°C / 0°C

[أكثر]
رياح 80º 8kt
مجال رؤية >10km
حالة الطقس -
غيوم Scattered Clouds 3300ft
الضغط 1024
تغيير No Significant change
خام UWWW 201900Z 08004MPS 9999 SCT033 08/M00 Q1024 R15/CLRD60 NOSIG RMK QFE757/1009

VFR

8°C / -1°C

[أكثر]
رياح 90º variable 070º to 140º 8kt
مجال رؤية >10km
حالة الطقس -
غيوم Scattered Clouds 3300ft
الضغط 1024
تغيير No Significant change
خام UWWW 201830Z 09004MPS 070V140 9999 SCT033 08/M01 Q1024 R15/CLRD60 NOSIG RMK QFE756/1009

VFR

8°C / -1°C

[أكثر]
رياح 90º 8kt
مجال رؤية >10km
حالة الطقس -
غيوم Scattered Clouds 3300ft
الضغط 1024
تغيير No Significant change
خام UWWW 201800Z 09004MPS 9999 SCT033 08/M01 Q1024 R15/CLRD60 NOSIG RMK QFE757/1009

VFR

9°C / -1°C

[أكثر]
رياح 80º 8kt
مجال رؤية >10km
حالة الطقس -
غيوم Clouds and Visibility OK
الضغط 1024
تغيير No Significant change
خام UWWW 201730Z 08004MPS CAVOK 09/M01 Q1024 R15/CLRD60 NOSIG RMK QFE757/1009

VFR

9°C / -1°C

[أكثر]
رياح 70º 8kt
مجال رؤية >10km
حالة الطقس -
غيوم Clouds and Visibility OK
الضغط 1024
تغيير No Significant change
خام UWWW 201700Z 07004MPS CAVOK 09/M01 Q1024 R15/CLRD60 NOSIG RMK QFE756/1009

VFR

10°C / -1°C

[أكثر]
رياح 80º 10kt
مجال رؤية >10km
حالة الطقس -
غيوم Clouds and Visibility OK
الضغط 1024
تغيير No Significant change
خام UWWW 201630Z 08005MPS CAVOK 10/M01 Q1024 R15/CLRD60 NOSIG RMK QFE756/1009

VFR

10°C / -1°C

[أكثر]
رياح 80º 8kt
مجال رؤية >10km
حالة الطقس -
غيوم Clouds and Visibility OK
الضغط 1024
تغيير No Significant change
خام UWWW 201600Z 08004MPS CAVOK 10/M01 Q1024 R15/CLRD60 NOSIG RMK QFE756/1009

VFR

10°C / -1°C

[أكثر]
رياح 70º 8kt
مجال رؤية >10km
حالة الطقس -
غيوم Clouds and Visibility OK
الضغط 1024
تغيير No Significant change
خام UWWW 201530Z 07004MPS CAVOK 10/M01 Q1024 R15/CLRD60 NOSIG RMK QFE756/1009

VFR

10°C / 0°C

[أكثر]
رياح 70º 6kt
مجال رؤية >10km
حالة الطقس -
غيوم Clouds and Visibility OK
الضغط 1024
تغيير No Significant change
خام UWWW 201500Z 07003MPS CAVOK 10/M00 Q1024 R15/CLRD60 NOSIG RMK QFE756/1008

VFR

11°C / -2°C

[أكثر]
رياح 90º variable 070º to 140º 6kt
مجال رؤية >10km
حالة الطقس -
غيوم Clouds and Visibility OK
الضغط 1024
تغيير No Significant change
خام UWWW 201430Z 09003MPS 070V140 CAVOK 11/M02 Q1024 R15/CLRD60 NOSIG RMK QFE756/1008

VFR

12°C / -2°C

[أكثر]
رياح 110º 8kt
مجال رؤية >10km
حالة الطقس -
غيوم Clouds and Visibility OK
الضغط 1024
تغيير No Significant change
خام UWWW 201400Z 11004MPS CAVOK 12/M02 Q1024 R15/CLRD60 NOSIG RMK QFE756/1008

VFR

12°C / -3°C

[أكثر]
رياح 110º 8kt
مجال رؤية >10km
حالة الطقس -
غيوم Clouds and Visibility OK
الضغط 1024
تغيير No Significant change
خام UWWW 201330Z 11004MPS CAVOK 12/M03 Q1024 R15/CLRD60 NOSIG RMK QFE756/1008

VFR

12°C / -2°C

[أكثر]
رياح 90º 10kt
مجال رؤية >10km
حالة الطقس -
غيوم Clouds and Visibility OK
الضغط 1024
تغيير No Significant change
خام UWWW 201300Z 09005MPS CAVOK 12/M02 Q1024 R15/CLRD60 NOSIG RMK QFE756/1008

VFR

12°C / -2°C

[أكثر]
رياح 100º 10kt
مجال رؤية >10km
حالة الطقس -
غيوم Clouds and Visibility OK
الضغط 1024
تغيير No Significant change
خام UWWW 201230Z 10005MPS CAVOK 12/M02 Q1024 R15/CLRD60 NOSIG RMK QFE756/1009

VFR

12°C / -3°C

[أكثر]
رياح 90º 10kt
مجال رؤية >10km
حالة الطقس -
غيوم Clouds and Visibility OK
الضغط 1024
تغيير No Significant change
خام UWWW 201200Z 09005MPS CAVOK 12/M03 Q1024 R15/CLRD60 NOSIG RMK QFE756/1009

VFR

12°C / -2°C

[أكثر]
رياح 90º 10kt
مجال رؤية >10km
حالة الطقس -
غيوم Clouds and Visibility OK
الضغط 1024
تغيير No Significant change
خام UWWW 201130Z 09005MPS CAVOK 12/M02 Q1024 R15/CLRD60 NOSIG RMK QFE757/1009

انقر ل53.5°شمال 50.15°شرق (UWWW)

From till


Maximum Temperature 12ºC on . Minimum Temperature 5ºC on .
From till Wind 80º 12kt. Visibility 10km or more. Broken Clouds 1600ft.
Temporarly from till Wind 120º 19kt. Light Showers Rain . Broken Clouds 1100ft.

خام: TAF UWWW 202251Z 2100/2124 08006MPS 9999 BKN016 TX12/2111Z TN05/2101Z TEMPO 2100/2124 12010MPS -SHRA BKN011CB

صور الأقمار الصناعية الملتقطة و الأمطار حالياً ل53.5°شمال 50.15°شرق

المؤشر يدل على موقع 53.5°شمال 50.15°شرق. [أكثر]

تجمع صورة الأقمار الصناعية في الوقت الفعلي بين الضوء المرئي أثناء النهار والأشعة تحت الحمراء أثناء الليل. لا تبدو الصورة مظلمة ليلاً، لأن الأشعة تحت الحمراء يمكنها الكشف عن الاختلافات في درجة الحرارة. لسوء الحظ ، يصعب التمييز بين السحب المنخفضة والضباب ودرجات حرارة الأرض ، وبالتالي يمكن أن تكون الصور غير مرئية تقريبًا أثناء الليل. يتم تحديث صور الأقمار الصناعية Meteosat الخاصة بأوروبا في الوقت الفعلي كل 5 دقائق، بينما يتم تحديث صور GOES-16 / GOES-17 (أمريكا الشمالية والجنوبية) و Himawari (آسيا) كل 10 دقائق.

حقوق النسخ 2021 EUMETSAT / meteoblue. / حقوق النسخ 2021 meteoblue

رادار وهطول الأمطار التنبؤ الآني ل53.5°شمال 50.15°شرق

رذاذ
ضوء
معتدل
ثقيل
ثقيل جدا
وابل

مؤشر المكان يشير الى 53.5°شمال 50.15°شرق. تظهر في هذه الرسوم المتحركة هطول الامطار بالرادار للساعة الماضية, و توقعات 1h. رذاذ أو تساقط ثلوج خفيف قد يكون غير مرئي للرادار. كثافة هطول الأمطار مرمزة بالألوان وتتراوح من الأزرق الفاتح إلى البرتقالي.